sat.trackr.live / text

‹ back to catalog

STARLINK-36895

NORAD 68038 · 2026-040Z

PAYLOAD ACTIVE UNKNOWN

§ Identity

Operator
Country
US
Launch date
2026-03-01
Launch site
AFWTR
Launch vehicle
Mass (kg)
RCS (m²)

Purposes: comms

External: N2YO · Heavens-Above · Gunter

§ Orbital elements

Epoch: 2026-09-20T03:13:21.791136Z

Period
93.91 min
Inclination
97.2858°
Eccentricity
0.0001903
Mean motion
15.33462755 rev/d
Perigee alt
464.2 km
Apogee alt
466.8 km
Semi-major
6,843.6 km
B*
5.6681e-4
RAAN
210.5078°
Arg perigee
89.1514°
Mean anomaly
270.9947°
Rev number
3,126

§ Raw data

STARLINK-368951 68038U 26040Z   26263.13427999  .00018279  00000+0  56681-3 0  99952 68038  97.2858 210.5078 0001903  89.1514 270.9947 15.33462755 31261

JSON: /api/v1/satellites/68038 · /tle

For live sub-satellite position, see the globe view (requires WebGL).

§ Visibility from observer

Set your observer location to see the next 7 days of passes ≥ 10°. The values pass through the URL so the page stays shareable.

No JS? Fill the form by hand. The geolocation button needs JavaScript.